Location: Crescent
(42.8242°N, 73.7329°W)
Time: 08:46:44
(UTC+00:00)

Vanguard 1 Rocket - Pass Details

Date: 18 February 2026
Orbit: 653 x 4214 km, 34.3° (Epoch: 12 March)

Event Time Altitude Azimuth Distance (km) Brightness Sun altitude
Rises 21:12:53 0° 268° (W) 5,220 12.5 12.4°
Reaches altitude 10° 21:15:42 10° 264° (W) 4,577 12.5 11.9°
Maximum altitude 21:29:28 61° 189° (S) 3,446 10.7 9.7°
Drops below altitude 10° 21:53:16 10° 117° (ESE) 7,370 11.6 5.7°
Sets 21:59:24 0° 114° (ESE) 8,452 11.9 4.6°
